Location: Castillon
(43.0896°N, 0.2156°E)
Time: 04:34:01
(UTC+00:00)

Cosmos 1980 Rocket - Pass Details

Date: 23 October 2021
Orbit: 828 x 851 km, 71.0° (Epoch: 07 December)

Event Time Altitude Azimuth Distance (km) Brightness Sun altitude
Rises 18:53:16 0° 254° (WSW) 3,392 6.6 -20.7°
Reaches altitude 10° 18:56:38 10° 275° (W) 2,466 5.8 -21.3°
Maximum altitude 19:00:12 17° 314° (NW) 2,034 4.8 -21.9°
Drops below altitude 10° 19:03:47 10° 354° (N) 2,482 4.8 -22.6°
Sets 19:07:13 0° 14° (NNE) 3,424 5.3 -23.2°
